Location: ??????
(41.3164°N, 22.6615°E)
Time: 01:53:39
(UTC+00:00)

SL-8 R/B - Pass Details

Date: 16 October 2021
Orbit: 656 x 667 km, 48.4° (Epoch: 02 December)

Event Time Altitude Azimuth Distance (km) Brightness Sun altitude
Rises 17:06:58 0° 223° (SW) 2,971 7.7 -15.8°
Reaches altitude 10° 17:09:21 10° 218° (SW) 2,064 6.7 -16.2°
Maximum altitude 17:13:57 50° 143° (SE) 837 3.9 -17.1°
Enters shadow 17:15:41 33° 89° (E) 1,101 4.3 -17.4°
